Find Starlink 32291

NORAD ID: 62442 Int'l Des: 2024-251 Owner: SPXS Country: US Constellation: starlink operational
LEOCIRCULAR

Current View

Loading 3D Globe...

About Starlink 32291

Starlink 32291 (NORAD 62442) is a starlink constellation satellite (v2 mini) launched Dec 29, 2024 by SPXS of US. It operates in LEO, CIRCULAR orbit with a mass of 730.00 kg.

Upcoming Passes

Passes for default location (London). Set your location on the main map for personalized predictions.

Altitude History

Loading altitude history...

Two-Line Element Set

1 62442U 24251L 26264.20061448 .00013216 00000-0 40123-3 0 9993
2 62442 53.1598 146.3526 0001091 96.3687 263.7440 15.34427458 97586
Epoch: Sep 21, 2026 • Age: 14 hours

Current Status

Altitude 464.2 km
Apogee / Perigee N/A
Velocity 7.64 km/s
Sub-Earth Point 31.91°N, 115.39°W
Launch Date Dec 29, 2024
Age 1.7 years
Type internet

Technical Details

Classification Payload
Mass 730.00 kg
Dry Mass 700.00 kg
Length 0.30 m
Span 29.00 m
Shape ? Box + pan
Manufacturer SPXS
Bus Type Starlink V2M
Phase Status In Orbit
Owner/State SPXS/US

Most Searched